TRANSIT 11 DEB, 11991

Orbit data source: Space-Track

TRANSIT 11 DEB, 11991 is space debris in LEO originally from a launch on Fri, 28 Jan 1966 UTC launched from the Air Force Western Test Range (AFWTR). Debris objects in space refer to the collection of defunct objects orbiting the Earth. Examples of debris include non-operational satellites, rocket bodies, and fragments generated from explosions, collisions, or faulty payload assembly.

Loading next visibility...
Identifier
11991, 1966-005H
Orbit
LEO
Country
Flag of USUS
Related business
Manufacturer
Unknown
Mission
Spacecraft
Bus & Motor
Unknown
Mass
Unknown
Launch date (UTC)
1966-01-28 (61 years ago)
Launch vehicle
Unknown
Launch site
Air Force Western Test Range (AFWTR)
Object type
Payload
Rocket body
Debris
Shape & HBR
Unknown shape, 0.2 m
Radar Cross Section
Medium (>0.1 m² and <1 m²)

Expand to show TLE details & history
Last TLE update: 11 hours ago

TLE from 11 hours ago
0 TRANSIT 11 DEB
1 11991U 66005H   26235.58811080  .00000567  00000-0  43547-3 0  9991
2 11991  90.1632 343.6243 0176637 134.2074 240.7451 13.84956662 30736
Epoch: 2026-08-23T14:06Z
TLE epoch observation values (Epoch: 2026-08-23T14:06:52.773Z)
Latitude
13.16814°
Longitude
159.98441°
Altitude
1,013.575 km
Speed
7.313 km/s
True Right ascension
22h 54m 20s
True Declination
13° 05' 41"
Sunlit
Object was in full shadow at epoch
Visualization orbit readout
Latitude
Unknown
Longitude
Unknown
Altitude
Unknown
Speed
Unknown
Apparent Right ascension
Unknown
Apparent Declination
Unknown
Sunlit
N/A
Visualization observer readout
Local Sidereal Time
16:09:44
Azimuth
Unknown
Elevation
Unknown
Doppler factor
Unknown
Orbital elements
Apogee altitude
1,072.681 km
Perigee altitude
814.032 km
Semi-major axis
7,321.493 km
Eccentricity
0.01766
Inclination
90.1632°
RAAN
343.6243°
Arg. of periapsis
134.2074°
True anomaly
238.99829°
Mean anomaly
240.7451°
Eccentric anomaly
239.86979°
Mean motion
3.46452 °/min
Orbital period
103.91 mins
BSTAR
0.00043547
Loading maneuver chart data...
Computing Atmospheric mass density...
Loading historical data...
Loading historical data...
Loading historical data...
Loading historical data...
Loading historical data...
Loading historical data...
Loading historical data...

Documentation

Showing up to 5 results
|